TimeEST,TemperatureF,Dew PointF,Humidity,Sea Level PressureIn,VisibilityMPH,Wind Direction,Wind SpeedMPH,Gust SpeedMPH,PrecipitationIn,Events,Conditions,WindDirDegrees,DateUTC
12:54 AM,12.9,9.0,84,30.36,10.0,NNW,5.8,-,N/A,,Clear,340,2013-02-22 05:54:00
1:54 AM,14.0,10.9,88,30.36,10.0,NE,8.1,-,N/A,,Clear,40,2013-02-22 06:54:00
2:54 AM,16.0,12.0,84,30.34,10.0,NE,9.2,-,N/A,,Clear,50,2013-02-22 07:54:00
3:54 AM,17.1,12.9,84,30.32,10.0,ENE,9.2,-,N/A,,Clear,60,2013-02-22 08:54:00
4:54 AM,18.0,12.9,81,30.33,10.0,East,6.9,-,N/A,,Clear,100,2013-02-22 09:54:00
5:54 AM,18.0,14.0,84,30.34,10.0,ENE,4.6,-,N/A,,Clear,70,2013-02-22 10:54:00
6:54 AM,18.0,14.0,84,30.34,10.0,ENE,5.8,-,N/A,,Clear,70,2013-02-22 11:54:00
7:54 AM,19.0,15.1,85,30.31,10.0,ENE,8.1,-,N/A,,Clear,60,2013-02-22 12:54:00
8:54 AM,21.0,16.0,81,30.29,10.0,ENE,9.2,-,N/A,,Overcast,60,2013-02-22 13:54:00
9:54 AM,25.0,17.1,72,30.26,10.0,Variable,6.9,-,N/A,,Overcast,0,2013-02-22 14:54:00
10:54 AM,26.1,17.1,69,30.25,10.0,ESE,6.9,-,0.00,,Overcast,110,2013-02-22 15:54:00
11:54 AM,27.0,19.0,72,30.23,6.0,SE,4.6,-,0.00,Snow,Light Snow,140,2013-02-22 16:54:00
12:52 PM,26.6,19.4,74,30.14,8.0,SE,5.8,-,0.00,,Overcast,130,2013-02-22 17:52:00
12:54 PM,26.1,19.9,78,30.22,7.0,SE,8.1,-,0.00,,Overcast,130,2013-02-22 17:54:00
1:54 PM,26.1,21.9,84,30.19,4.0,ESE,6.9,-,0.01,,Overcast,120,2013-02-22 18:54:00
2:05 PM,26.6,23.0,86,30.12,3.0,Variable,4.6,-,0.00,Rain,Light Freezing Rain,0,2013-02-22 19:05:00
2:54 PM,26.1,24.1,92,30.17,3.0,SE,4.6,-,0.00,Rain,Light Freezing Rain,140,2013-02-22 19:54:00
3:07 PM,26.6,24.8,93,30.10,2.5,Variable,4.6,-,0.00,Rain,Light Freezing Rain,0,2013-02-22 20:07:00
3:20 PM,26.6,24.8,93,30.10,3.0,SE,4.6,-,0.00,Rain,Light Freezing Rain,140,2013-02-22 20:20:00
3:49 PM,26.6,24.8,93,30.09,4.0,Variable,4.6,-,0.00,,Overcast,0,2013-02-22 20:49:00
3:54 PM,26.1,25.0,96,30.16,5.0,SE,4.6,-,0.00,,Overcast,130,2013-02-22 20:54:00
4:21 PM,26.6,24.8,93,30.09,2.0,Calm,Calm,-,0.00,Rain,Light Freezing Rain,0,2013-02-22 21:21:00
4:42 PM,26.6,24.8,93,30.08,3.0,SSE,9.2,-,0.00,Rain,Light Freezing Rain,160,2013-02-22 21:42:00
4:54 PM,26.1,25.0,96,30.16,4.0,ESE,4.6,-,0.00,,Overcast,120,2013-02-22 21:54:00
5:54 PM,27.0,25.0,92,30.15,10.0,ESE,3.5,-,0.00,,Overcast,120,2013-02-22 22:54:00
6:54 PM,27.0,25.0,92,30.15,10.0,SE,3.5,-,N/A,,Overcast,140,2013-02-22 23:54:00
7:54 PM,27.0,24.1,89,30.14,10.0,ESE,4.6,-,N/A,,Overcast,110,2013-02-23 00:54:00
8:09 PM,26.6,24.8,93,30.08,10.0,ESE,4.6,-,N/A,,Overcast,110,2013-02-23 01:09:00
8:54 PM,27.0,24.1,89,30.15,10.0,Variable,3.5,-,N/A,,Overcast,0,2013-02-23 01:54:00
9:54 PM,27.0,25.0,92,30.14,10.0,SE,4.6,-,N/A,,Overcast,140,2013-02-23 02:54:00
10:54 PM,27.0,24.1,89,30.13,10.0,Calm,Calm,-,N/A,,Overcast,0,2013-02-23 03:54:00
11:54 PM,28.0,24.1,85,30.12,9.0,Calm,Calm,-,N/A,,Overcast,0,2013-02-23 04:54:00